Location: *
(50.2903°S, 172.5375°W)
Time: 08:04:52
(UTC+00:00)

Cosmos 1763 Rocket - Pass Details

Date: 17 November 2019
Orbit: 734 x 779 km, 74.0° (Epoch: 10 December)

Event Time Altitude Azimuth Distance (km) Brightness Sun altitude
Exits shadow 14:31:51 - 329° (NNW) 2,345 5.4 -8.3°
Reaches altitude 10° 14:32:00 10° 329° (NNW) 2,287 5.3 -8.3°
Maximum altitude 14:37:11 71° 244° (WSW) 817 3.6 -7.7°
Drops below altitude 10° 14:42:31 10° 159° (SSE) 2,345 7.2 -7.0°
Sets 14:44:57 0° 156° (SSE) 3,285 8.1 -6.7°
